Location: Newark
(58.9986°N, 38.5006°E)
Time: 08:40:30
(UTC+00:00)

N. Korean satellite - Pass Details

Date: 14 December 2019
Orbit: 454 x 507 km, 97.2° (Epoch: 24 January)

Event Time Altitude Azimuth Distance (km) Brightness Sun altitude
Rises 15:32:06 0° 211° (SSW) 2,599 10.9 -21.2°
Reaches altitude 10° 15:34:53 10° 234° (SW) 1,713 10.2 -21.6°
Maximum altitude 15:37:11 16° 272° (W) 1,388 9.8 -21.8°
Drops below altitude 10° 15:39:29 10° 311° (NW) 1,707 9.8 -22.1°
Sets 15:42:14 0° 335° (NNW) 2,584 10.5 -22.5°
